Time,TemperatureF,DewpointF,PressureIn,WindDirection,WindDirectionDegrees,WindSpeedMPH,WindSpeedGustMPH,Humidity,HourlyPrecipIn,Conditions,Clouds,dailyrainin,SoftwareType,DateUTC
2013-01-23 00:11:00,12.6,1.7,30.00,South,179,0.0,1.0,61,0.00,,,0.00,Wunderground v.1.15,2013-01-23 05:11:00,
2013-01-23 00:16:00,12.5,1.2,30.00,South,178,0.0,1.0,60,0.00,,,0.00,Wunderground v.1.15,2013-01-23 05:16:00,
2013-01-23 00:21:00,12.4,1.1,30.00,South,182,0.0,0.0,60,0.00,,,0.00,Wunderground v.1.15,2013-01-23 05:21:00,
2013-01-23 00:26:00,12.3,1.0,30.00,South,182,0.0,0.0,60,0.00,,,0.00,Wunderground v.1.15,2013-01-23 05:26:00,
2013-01-23 00:36:00,12.2,0.9,30.00,South,182,0.0,0.0,60,0.00,,,0.00,Wunderground v.1.15,2013-01-23 05:36:00,
2013-01-23 00:46:00,12.0,0.8,30.00,South,182,0.0,0.0,60,0.00,,,0.00,Wunderground v.1.15,2013-01-23 05:46:00,
2013-01-23 00:56:00,11.8,0.6,30.00,South,182,0.0,0.0,60,0.00,,,0.00,Wunderground v.1.15,2013-01-23 05:56:00,
2013-01-23 01:06:00,11.7,0.8,30.00,South,182,0.0,0.0,61,0.00,,,0.00,Wunderground v.1.15,2013-01-23 06:06:00,
2013-01-23 01:11:00,11.6,0.7,30.00,South,182,0.0,0.0,61,0.00,,,0.00,Wunderground v.1.15,2013-01-23 06:11:00,
2013-01-23 01:21:00,11.6,0.7,30.00,South,182,0.0,0.0,61,0.00,,,0.00,Wunderground v.1.15,2013-01-23 06:21:00,
2013-01-23 01:31:00,11.5,1.0,30.00,South,182,0.0,0.0,62,0.00,,,0.00,Wunderground v.1.15,2013-01-23 06:31:00,
2013-01-23 01:36:00,11.3,0.8,30.00,South,182,0.0,0.0,62,0.00,,,0.00,Wunderground v.1.15,2013-01-23 06:36:00,
2013-01-23 01:41:00,11.2,0.7,30.00,South,182,0.0,2.0,62,0.00,,,0.00,Wunderground v.1.15,2013-01-23 06:41:00,
2013-01-23 01:56:00,11.1,0.3,30.00,South,182,0.0,1.0,61,0.00,,,0.00,Wunderground v.1.15,2013-01-23 06:56:00,
2013-01-23 02:06:00,11.0,-0.2,30.00,South,182,0.0,0.0,60,0.00,,,0.00,Wunderground v.1.15,2013-01-23 07:06:00,
2013-01-23 02:11:00,11.0,-0.2,30.00,South,182,0.0,0.0,60,0.00,,,0.00,Wunderground v.1.15,2013-01-23 07:11:00,
2013-01-23 02:21:00,10.9,-0.3,30.01,South,182,0.0,0.0,60,0.00,,,0.00,Wunderground v.1.15,2013-01-23 07:21:00,
2013-01-23 02:31:00,10.9,-1.4,30.01,South,183,1.0,1.0,57,0.00,,,0.00,Wunderground v.1.15,2013-01-23 07:31:00,
2013-01-23 02:36:00,10.9,-1.0,30.01,South,183,0.0,1.0,58,0.00,,,0.00,Wunderground v.1.15,2013-01-23 07:36:00,
2013-01-23 02:46:00,10.9,-1.7,30.01,NNW,346,0.0,2.0,56,0.00,,,0.00,Wunderground v.1.15,2013-01-23 07:46:00,
2013-01-23 02:51:00,10.9,-1.4,30.01,NNW,346,0.0,1.0,57,0.00,,,0.00,Wunderground v.1.15,2013-01-23 07:51:00,
2013-01-23 03:01:00,10.7,-1.2,30.01,North,355,0.0,2.0,58,0.00,,,0.00,Wunderground v.1.15,2013-01-23 08:01:00,
2013-01-23 03:10:00,10.6,-1.7,30.01,North,355,0.0,0.0,57,0.00,,,0.00,Wunderground v.1.15,2013-01-23 08:10:00,
2013-01-23 03:16:00,10.5,-1.4,30.01,North,355,0.0,0.0,58,0.00,,,0.00,Wunderground v.1.15,2013-01-23 08:16:00,
2013-01-23 03:21:00,10.4,-1.5,30.01,North,350,0.0,1.0,58,0.00,,,0.00,Wunderground v.1.15,2013-01-23 08:21:00,
2013-01-23 03:31:00,10.4,-1.1,30.02,North,350,1.0,1.0,59,0.00,,,0.00,Wunderground v.1.15,2013-01-23 08:31:00,
2013-01-23 03:36:00,10.3,-1.6,30.01,North,350,1.0,1.0,58,0.00,,,0.00,Wunderground v.1.15,2013-01-23 08:36:00,
2013-01-23 03:41:00,10.3,-1.2,30.01,North,351,0.0,0.0,59,0.00,,,0.00,Wunderground v.1.15,2013-01-23 08:41:00,
2013-01-23 03:51:00,10.1,-1.0,30.01,North,351,0.0,0.0,60,0.00,,,0.00,Wunderground v.1.15,2013-01-23 08:51:00,
2013-01-23 04:00:00,9.9,-1.2,30.01,North,351,0.0,0.0,60,0.00,,,0.00,Wunderground v.1.15,2013-01-23 09:00:00,
2013-01-23 04:11:00,9.9,-1.2,30.01,North,351,0.0,0.0,60,0.00,,,0.00,Wunderground v.1.15,2013-01-23 09:11:00,
2013-01-23 04:21:00,9.9,-1.2,30.01,North,351,0.0,0.0,60,0.00,,,0.00,Wunderground v.1.15,2013-01-23 09:21:00,
2013-01-23 04:26:00,9.8,-1.3,30.01,North,351,0.0,1.0,60,0.00,,,0.00,Wunderground v.1.15,2013-01-23 09:26:00,
2013-01-23 04:35:00,9.7,-1.4,30.02,North,351,0.0,0.0,60,0.00,,,0.00,Wunderground v.1.15,2013-01-23 09:35:00,
2013-01-23 04:45:00,9.5,-1.6,30.02,North,351,0.0,0.0,60,0.00,,,0.00,Wunderground v.1.15,2013-01-23 09:45:00,
2013-01-23 04:51:00,9.4,-1.4,30.02,North,351,0.0,0.0,61,0.00,,,0.00,Wunderground v.1.15,2013-01-23 09:51:00,
2013-01-23 04:56:00,9.4,-1.4,30.02,North,351,0.0,0.0,61,0.00,,,0.00,Wunderground v.1.15,2013-01-23 09:56:00,
2013-01-23 05:06:00,9.3,-1.1,30.02,North,349,0.0,2.0,62,0.00,,,0.00,Wunderground v.1.15,2013-01-23 10:06:00,
2013-01-23 05:16:00,9.4,-1.7,30.03,North,9,1.0,2.0,60,0.00,,,0.00,Wunderground v.1.15,2013-01-23 10:16:00,
2013-01-23 05:26:00,9.4,-3.2,30.03,WSW,245,2.0,2.0,56,0.00,,,0.00,Wunderground v.1.15,2013-01-23 10:26:00,
2013-01-23 05:35:00,9.2,-4.5,30.03,NNW,348,1.0,1.0,53,0.00,,,0.00,Wunderground v.1.15,2013-01-23 10:35:00,
2013-01-23 05:40:00,9.1,-5.0,30.03,NNW,346,0.0,0.0,52,0.00,,,0.00,Wunderground v.1.15,2013-01-23 10:40:00,
2013-01-23 05:51:00,8.9,-6.0,30.04,North,9,1.0,1.0,50,0.00,,,0.00,Wunderground v.1.15,2013-01-23 10:51:00,
2013-01-23 06:01:00,8.8,-6.5,30.05,West,276,1.0,1.0,49,0.00,,,0.00,Wunderground v.1.15,2013-01-23 11:01:00,
2013-01-23 06:11:00,8.6,-6.7,30.05,NNW,344,1.0,1.0,49,0.00,,,0.00,Wunderground v.1.15,2013-01-23 11:11:00,
2013-01-23 06:16:00,8.5,-6.4,30.05,NNW,343,1.0,1.0,50,0.00,,,0.00,Wunderground v.1.15,2013-01-23 11:16:00,
2013-01-23 06:21:00,8.4,-6.9,30.05,SW,223,1.0,1.0,49,0.00,,,0.00,Wunderground v.1.15,2013-01-23 11:21:00,
2013-01-23 06:26:00,8.3,-7.0,30.05,SW,221,1.0,1.0,49,0.00,,,0.00,Wunderground v.1.15,2013-01-23 11:26:00,
2013-01-23 06:36:00,8.2,-7.1,30.05,West,261,0.0,4.0,49,0.00,,,0.00,Wunderground v.1.15,2013-01-23 11:36:00,
2013-01-23 06:46:00,8.0,-7.7,30.05,WSW,250,1.0,1.0,48,0.00,,,0.00,Wunderground v.1.15,2013-01-23 11:46:00,
2013-01-23 06:56:00,7.8,-7.4,30.06,ENE,63,1.0,1.0,49,0.00,,,0.00,Wunderground v.1.15,2013-01-23 11:56:00,
2013-01-23 07:06:00,7.6,-8.0,30.06,North,9,0.0,1.0,48,0.00,,,0.00,Wunderground v.1.15,2013-01-23 12:06:00,
2013-01-23 07:16:00,7.4,-7.8,30.07,NW,321,0.0,0.0,49,0.00,,,0.00,Wunderground v.1.15,2013-01-23 12:16:00,
2013-01-23 07:26:00,7.1,-6.5,30.06,NNW,348,1.0,2.0,53,0.00,,,0.00,Wunderground v.1.15,2013-01-23 12:26:00,
2013-01-23 07:36:00,6.9,-5.1,30.06,North,351,0.0,1.0,57,0.00,,,0.00,Wunderground v.1.15,2013-01-23 12:36:00,
2013-01-23 07:41:00,6.8,-5.2,30.07,North,355,0.0,0.0,57,0.00,,,0.00,Wunderground v.1.15,2013-01-23 12:41:00,
2013-01-23 07:51:00,6.5,-4.8,30.07,North,5,0.0,1.0,59,0.00,,,0.00,Wunderground v.1.15,2013-01-23 12:51:00,
2013-01-23 08:06:00,6.2,-4.4,30.07,NNE,33,1.0,2.0,61,0.00,,,0.00,Wunderground v.1.15,2013-01-23 13:06:00,
2013-01-23 08:16:00,6.1,-3.8,30.08,NNW,346,1.0,1.0,63,0.00,,,0.00,Wunderground v.1.15,2013-01-23 13:16:00,
2013-01-23 08:21:00,6.2,-3.7,30.08,NNW,347,0.0,0.0,63,0.00,,,0.00,Wunderground v.1.15,2013-01-23 13:21:00,
2013-01-23 08:31:00,6.4,-3.5,30.08,NNE,26,1.0,3.0,63,0.00,,,0.00,Wunderground v.1.15,2013-01-23 13:31:00,
2013-01-23 08:36:00,6.4,-3.9,30.08,NE,35,1.0,3.0,62,0.00,,,0.00,Wunderground v.1.15,2013-01-23 13:36:00,
2013-01-23 08:41:00,6.5,-3.8,30.08,NE,46,1.0,1.0,62,0.00,,,0.00,Wunderground v.1.15,2013-01-23 13:41:00,
2013-01-23 08:46:00,6.6,-3.7,30.08,NNE,29,1.0,2.0,62,0.00,,,0.00,Wunderground v.1.15,2013-01-23 13:46:00,
2013-01-23 08:56:00,6.5,-3.4,30.08,NNW,329,1.0,1.0,63,0.00,,,0.00,Wunderground v.1.15,2013-01-23 13:56:00,
2013-01-23 09:06:00,6.9,-3.1,30.08,North,5,1.0,3.0,63,0.00,,,0.00,Wunderground v.1.15,2013-01-23 14:06:00,
2013-01-23 09:16:00,7.3,-3.7,30.08,NNE,17,1.0,3.0,60,0.00,,,0.00,Wunderground v.1.15,2013-01-23 14:16:00,
2013-01-23 09:21:00,7.6,-3.8,30.09,NNW,334,1.0,1.0,59,0.00,,,0.00,Wunderground v.1.15,2013-01-23 14:21:00,
2013-01-23 09:26:00,7.8,-3.9,30.09,NNW,333,1.0,1.0,58,0.00,,,0.00,Wunderground v.1.15,2013-01-23 14:26:00,
2013-01-23 09:36:00,8.4,-4.1,30.08,NW,325,1.0,7.0,56,0.00,,,0.00,Wunderground v.1.15,2013-01-23 14:36:00,
2013-01-23 09:46:00,8.7,-4.6,30.09,West,270,2.0,3.0,54,0.00,,,0.00,Wunderground v.1.15,2013-01-23 14:46:00,
2013-01-23 09:51:00,8.7,-4.6,30.08,NW,312,2.0,2.0,54,0.00,,,0.00,Wunderground v.1.15,2013-01-23 14:51:00,
2013-01-23 10:01:00,8.9,-4.8,30.08,NNW,347,2.0,2.0,53,0.00,,,0.00,Wunderground v.1.15,2013-01-23 15:01:00,
2013-01-23 10:11:00,9.6,-4.1,30.08,NNW,345,1.0,1.0,53,0.00,,,0.00,Wunderground v.1.15,2013-01-23 15:11:00,
2013-01-23 10:16:00,9.9,-4.2,30.08,NW,313,1.0,3.0,52,0.00,,,0.00,Wunderground v.1.15,2013-01-23 15:16:00,
2013-01-23 10:26:00,10.4,-4.6,30.07,WSW,255,1.0,2.0,50,0.00,,,0.00,Wunderground v.1.15,2013-01-23 15:26:00,
2013-01-23 10:36:00,10.6,-4.4,30.07,NE,34,2.0,3.0,50,0.00,,,0.00,Wunderground v.1.15,2013-01-23 15:36:00,
2013-01-23 10:46:00,11.0,-4.9,30.06,WSW,249,1.0,2.0,48,0.00,,,0.00,Wunderground v.1.15,2013-01-23 15:46:00,
2013-01-23 10:56:00,10.9,-4.6,30.06,SW,214,2.0,2.0,49,0.00,,,0.00,Wunderground v.1.15,2013-01-23 15:56:00,
2013-01-23 11:06:00,11.3,-4.2,30.06,WNW,286,1.0,2.0,49,0.00,,,0.00,Wunderground v.1.15,2013-01-23 16:06:00,
2013-01-23 11:16:00,11.4,-4.5,30.05,NNW,344,1.0,2.0,48,0.00,,,0.00,Wunderground v.1.15,2013-01-23 16:16:00,
2013-01-23 11:26:00,11.3,-5.5,30.04,NE,56,2.0,6.0,46,0.00,,,0.00,Wunderground v.1.15,2013-01-23 16:26:00,
2013-01-23 11:36:00,11.0,-5.8,30.05,NE,35,3.0,4.0,46,0.00,,,0.00,Wunderground v.1.15,2013-01-23 16:36:00,
2013-01-23 11:46:00,11.3,-5.1,30.04,NNW,335,1.0,2.0,47,0.00,,,0.00,Wunderground v.1.15,2013-01-23 16:46:00,
2013-01-23 11:56:00,11.5,-5.3,30.04,North,360,2.0,5.0,46,0.00,,,0.00,Wunderground v.1.15,2013-01-23 16:56:00,
2013-01-23 12:06:00,11.2,-5.6,30.04,WSW,243,2.0,4.0,46,0.00,,,0.00,Wunderground v.1.15,2013-01-23 17:06:00,
2013-01-23 12:16:00,11.5,-5.8,30.03,WSW,256,2.0,2.0,45,0.00,,,0.00,Wunderground v.1.15,2013-01-23 17:16:00,
2013-01-23 12:26:00,12.0,-4.9,30.02,NNE,18,2.0,2.0,46,0.00,,,0.00,Wunderground v.1.15,2013-01-23 17:26:00,
2013-01-23 12:31:00,12.2,-5.1,30.02,North,349,2.0,3.0,45,0.00,,,0.00,Wunderground v.1.15,2013-01-23 17:31:00,
2013-01-23 12:41:00,12.3,-6.5,30.02,NNE,32,1.0,2.0,42,0.00,,,0.00,Wunderground v.1.15,2013-01-23 17:41:00,
2013-01-23 12:46:00,12.3,-7.0,30.01,NNW,334,1.0,2.0,41,0.00,,,0.00,Wunderground v.1.15,2013-01-23 17:46:00,
2013-01-23 12:56:00,12.6,-6.7,30.02,WSW,237,1.0,2.0,41,0.00,,,0.00,Wunderground v.1.15,2013-01-23 17:56:00,
2013-01-23 13:06:00,12.8,-7.0,30.01,West,275,1.0,2.0,40,0.00,,,0.00,Wunderground v.1.15,2013-01-23 18:06:00,
2013-01-23 13:16:00,13.1,-6.2,30.01,North,350,1.0,1.0,41,0.00,,,0.00,Wunderground v.1.15,2013-01-23 18:16:00,
2013-01-23 13:26:00,13.0,-7.4,30.01,West,271,2.0,2.0,39,0.00,,,0.00,Wunderground v.1.15,2013-01-23 18:26:00,
2013-01-23 13:36:00,13.0,-6.3,30.01,NNW,334,2.0,2.0,41,0.00,,,0.00,Wunderground v.1.15,2013-01-23 18:36:00,
2013-01-23 13:46:00,12.7,-8.2,30.01,North,351,1.0,2.0,38,0.00,,,0.00,Wunderground v.1.15,2013-01-23 18:46:00,
2013-01-23 13:51:00,12.7,-7.6,30.01,SW,227,2.0,2.0,39,0.00,,,0.00,Wunderground v.1.15,2013-01-23 18:51:00,
2013-01-23 14:01:00,13.1,-7.3,30.01,NW,325,1.0,1.0,39,0.00,,,0.00,Wunderground v.1.15,2013-01-23 19:01:00,
2013-01-23 14:06:00,13.3,-7.1,30.01,East,83,1.0,1.0,39,0.00,,,0.00,Wunderground v.1.15,2013-01-23 19:06:00,
2013-01-23 14:16:00,13.3,-7.1,30.02,North,350,1.0,2.0,39,0.00,,,0.00,Wunderground v.1.15,2013-01-23 19:16:00,
2013-01-23 14:21:00,13.3,-8.2,30.01,NW,307,1.0,1.0,37,0.00,,,0.00,Wunderground v.1.15,2013-01-23 19:21:00,
2013-01-23 14:31:00,13.4,-7.5,30.02,NNW,342,1.0,3.0,38,0.00,,,0.00,Wunderground v.1.15,2013-01-23 19:31:00,
2013-01-23 14:36:00,13.1,-7.8,30.02,West,273,1.0,3.0,38,0.00,,,0.00,Wunderground v.1.15,2013-01-23 19:36:00,
2013-01-23 14:46:00,12.7,-7.6,30.02,NW,326,1.0,2.0,39,0.00,,,0.00,Wunderground v.1.15,2013-01-23 19:46:00,
2013-01-23 14:56:00,12.7,-7.6,30.02,NW,319,1.0,2.0,39,0.00,,,0.00,Wunderground v.1.15,2013-01-23 19:56:00,
2013-01-23 15:06:00,12.7,-7.6,30.03,North,355,1.0,1.0,39,0.00,,,0.00,Wunderground v.1.15,2013-01-23 20:06:00,
2013-01-23 15:16:00,12.8,-8.1,30.03,NNW,333,1.0,2.0,38,0.00,,,0.00,Wunderground v.1.15,2013-01-23 20:16:00,
2013-01-23 15:21:00,12.7,-7.6,30.02,NNE,24,1.0,1.0,39,0.00,,,0.00,Wunderground v.1.15,2013-01-23 20:21:00,
2013-01-23 15:31:00,12.7,-8.2,30.03,NE,38,1.0,8.0,38,0.00,,,0.00,Wunderground v.1.15,2013-01-23 20:31:00,
2013-01-23 15:41:00,12.2,-7.6,30.03,NNW,338,1.0,1.0,40,0.00,,,0.00,Wunderground v.1.15,2013-01-23 20:41:00,
2013-01-23 15:46:00,12.0,-8.3,30.03,NW,325,1.0,1.0,39,0.00,,,0.00,Wunderground v.1.15,2013-01-23 20:46:00,
2013-01-23 15:56:00,11.8,-8.4,30.03,NNW,345,1.0,1.0,39,0.00,,,0.00,Wunderground v.1.15,2013-01-23 20:56:00,
2013-01-23 16:06:00,11.6,-8.1,30.03,North,355,1.0,1.0,40,0.00,,,0.00,Wunderground v.1.15,2013-01-23 21:06:00,
2013-01-23 16:16:00,11.2,-9.0,30.04,NNW,333,1.0,1.0,39,0.00,,,0.00,Wunderground v.1.15,2013-01-23 21:16:00,
2013-01-23 16:21:00,11.1,-9.1,30.04,WNW,303,1.0,1.0,39,0.00,,,0.00,Wunderground v.1.15,2013-01-23 21:21:00,
2013-01-23 16:31:00,10.9,-8.2,30.03,North,360,1.0,1.0,41,0.00,,,0.00,Wunderground v.1.15,2013-01-23 21:31:00,
2013-01-23 16:41:00,10.6,-9.0,30.04,NNW,330,1.0,2.0,40,0.00,,,0.00,Wunderground v.1.15,2013-01-23 21:41:00,
2013-01-23 16:51:00,10.3,-9.3,30.04,West,279,1.0,1.0,40,0.00,,,0.00,Wunderground v.1.15,2013-01-23 21:51:00,
2013-01-23 16:56:00,10.2,-9.4,30.05,WSW,237,1.0,1.0,40,0.00,,,0.00,Wunderground v.1.15,2013-01-23 21:56:00,
2013-01-23 17:06:00,9.9,-9.1,30.05,NE,36,1.0,1.0,41,0.00,,,0.00,Wunderground v.1.15,2013-01-23 22:06:00,
2013-01-23 17:16:00,9.9,-9.1,30.05,NNW,334,1.0,1.0,41,0.00,,,0.00,Wunderground v.1.15,2013-01-23 22:16:00,
2013-01-23 17:26:00,9.6,-9.4,30.05,NE,36,1.0,1.0,41,0.00,,,0.00,Wunderground v.1.15,2013-01-23 22:26:00,
2013-01-23 17:31:00,9.6,-9.4,30.06,NE,36,1.0,1.0,41,0.00,,,0.00,Wunderground v.1.15,2013-01-23 22:31:00,
2013-01-23 17:41:00,9.4,-9.6,30.06,East,84,1.0,1.0,41,0.00,,,0.00,Wunderground v.1.15,2013-01-23 22:41:00,
2013-01-23 17:51:00,9.2,-9.3,30.06,SE,136,0.0,0.0,42,0.00,,,0.00,Wunderground v.1.15,2013-01-23 22:51:00,
2013-01-23 18:01:00,9.1,-8.9,30.06,SE,136,0.0,0.0,43,0.00,,,0.00,Wunderground v.1.15,2013-01-23 23:01:00,
2013-01-23 18:06:00,9.0,-9.0,30.06,ESE,121,0.0,2.0,43,0.00,,,0.00,Wunderground v.1.15,2013-01-23 23:06:00,
2013-01-23 18:16:00,8.9,-9.1,30.06,ESE,122,0.0,1.0,43,0.00,,,0.00,Wunderground v.1.15,2013-01-23 23:16:00,
2013-01-23 18:26:00,8.7,-8.8,30.07,SE,124,0.0,0.0,44,0.00,,,0.00,Wunderground v.1.15,2013-01-23 23:26:00,
2013-01-23 18:31:00,8.6,-8.9,30.07,ESE,121,0.0,0.0,44,0.00,,,0.00,Wunderground v.1.15,2013-01-23 23:31:00,
2013-01-23 18:36:00,8.6,-8.0,30.07,ESE,121,0.0,0.0,46,0.00,,,0.00,Wunderground v.1.15,2013-01-23 23:36:00,
2013-01-23 18:46:00,8.4,-8.6,30.07,NNW,338,0.0,4.0,45,0.00,,,0.00,Wunderground v.1.15,2013-01-23 23:46:00,
2013-01-23 18:56:00,8.2,-8.8,30.07,North,360,0.0,0.0,45,0.00,,,0.00,Wunderground v.1.15,2013-01-23 23:56:00,
2013-01-23 19:06:00,8.1,-8.9,30.07,North,360,0.0,1.0,45,0.00,,,0.00,Wunderground v.1.15,2013-01-24 00:06:00,
2013-01-23 19:11:00,8.0,-9.0,30.07,North,5,0.0,0.0,45,0.00,,,0.00,Wunderground v.1.15,2013-01-24 00:11:00,
2013-01-23 19:21:00,7.8,-8.7,30.07,North,5,0.0,0.0,46,0.00,,,0.00,Wunderground v.1.15,2013-01-24 00:21:00,
2013-01-23 19:31:00,7.6,-9.4,30.07,NNW,340,0.0,0.0,45,0.00,,,0.00,Wunderground v.1.15,2013-01-24 00:31:00,
2013-01-23 19:36:00,7.5,-9.0,30.07,NNW,340,0.0,1.0,46,0.00,,,0.00,Wunderground v.1.15,2013-01-24 00:36:00,
2013-01-23 19:46:00,7.3,-8.7,30.07,NNW,340,0.0,0.0,47,0.00,,,0.00,Wunderground v.1.15,2013-01-24 00:46:00,
2013-01-23 19:56:00,7.2,-9.3,30.08,NNW,340,0.0,2.0,46,0.00,,,0.00,Wunderground v.1.15,2013-01-24 00:56:00,
2013-01-23 20:06:00,7.1,-9.4,30.08,NNW,340,1.0,1.0,46,0.00,,,0.00,Wunderground v.1.15,2013-01-24 01:06:00,
2013-01-23 20:16:00,6.9,-9.1,30.07,NNW,340,0.0,0.0,47,0.00,,,0.00,Wunderground v.1.15,2013-01-24 01:16:00,
2013-01-23 20:26:00,6.7,-8.9,30.07,NNW,340,0.0,0.0,48,0.00,,,0.00,Wunderground v.1.15,2013-01-24 01:26:00,
2013-01-23 20:36:00,6.6,-9.0,30.07,NNW,340,0.0,0.0,48,0.00,,,0.00,Wunderground v.1.15,2013-01-24 01:36:00,
2013-01-23 20:41:00,6.5,-9.1,30.08,WSW,237,0.0,0.0,48,0.00,,,0.00,Wunderground v.1.15,2013-01-24 01:41:00,
2013-01-23 20:51:00,6.4,-8.7,30.07,WSW,237,0.0,0.0,49,0.00,,,0.00,Wunderground v.1.15,2013-01-24 01:51:00,
2013-01-23 21:01:00,6.2,-8.9,30.07,NNW,333,0.0,0.0,49,0.00,,,0.00,Wunderground v.1.15,2013-01-24 02:01:00,
2013-01-23 21:06:00,6.1,-8.6,30.07,NNW,333,0.0,0.0,50,0.00,,,0.00,Wunderground v.1.15,2013-01-24 02:06:00,
2013-01-23 21:16:00,6.1,-9.0,30.07,NNW,327,0.0,0.0,49,0.00,,,0.00,Wunderground v.1.15,2013-01-24 02:16:00,
2013-01-23 21:26:00,6.0,-9.1,30.08,NW,321,0.0,0.0,49,0.00,,,0.00,Wunderground v.1.15,2013-01-24 02:26:00,
2013-01-23 21:35:00,5.9,-8.8,30.07,NW,321,0.0,0.0,50,0.00,,,0.00,Wunderground v.1.15,2013-01-24 02:35:00,
2013-01-23 21:41:00,5.8,-8.9,30.08,NE,36,0.0,0.0,50,0.00,,,0.00,Wunderground v.1.15,2013-01-24 02:41:00,
2013-01-23 21:51:00,5.7,-9.0,30.08,NNE,31,0.0,0.0,50,0.00,,,0.00,Wunderground v.1.15,2013-01-24 02:51:00,
2013-01-23 21:56:00,5.6,-8.7,30.08,NNE,30,0.0,0.0,51,0.00,,,0.00,Wunderground v.1.15,2013-01-24 02:56:00,
2013-01-23 22:06:00,5.5,-9.2,30.08,NNE,30,0.0,0.0,50,0.00,,,0.00,Wunderground v.1.15,2013-01-24 03:06:00,
2013-01-23 22:16:00,5.4,-8.8,30.07,NNE,30,0.0,0.0,51,0.00,,,0.00,Wunderground v.1.15,2013-01-24 03:16:00,
2013-01-23 22:26:00,5.2,-9.0,30.07,NNE,30,0.0,0.0,51,0.00,,,0.00,Wunderground v.1.15,2013-01-24 03:26:00,
2013-01-23 22:36:00,5.1,-8.7,30.07,NNE,31,0.0,0.0,52,0.00,,,0.00,Wunderground v.1.15,2013-01-24 03:36:00,
2013-01-23 22:46:00,5.0,-8.4,30.07,NNE,31,0.0,0.0,53,0.00,,,0.00,Wunderground v.1.15,2013-01-24 03:46:00,
2013-01-23 22:56:00,4.8,-9.0,30.07,NNE,30,0.0,0.0,52,0.00,,,0.00,Wunderground v.1.15,2013-01-24 03:56:00,
2013-01-23 23:06:00,4.7,-9.1,30.07,NW,318,1.0,2.0,52,0.00,,,0.00,Wunderground v.1.15,2013-01-24 04:06:00,
2013-01-23 23:16:00,4.6,-8.8,30.07,NW,315,0.0,1.0,53,0.00,,,0.00,Wunderground v.1.15,2013-01-24 04:16:00,
2013-01-23 23:26:00,4.5,-8.5,30.07,NW,314,0.0,1.0,54,0.00,,,0.00,Wunderground v.1.15,2013-01-24 04:26:00,
2013-01-23 23:36:00,4.4,-9.0,30.06,NW,314,0.0,0.0,53,0.00,,,0.00,Wunderground v.1.15,2013-01-24 04:36:00,
2013-01-23 23:46:00,4.1,-8.9,30.06,NW,314,0.0,1.0,54,0.00,,,0.00,Wunderground v.1.15,2013-01-24 04:46:00,
2013-01-23 23:51:00,4.0,-9.0,30.06,NW,314,0.0,0.0,54,0.00,,,0.00,Wunderground v.1.15,2013-01-24 04:51:00,